DLH37E EDDF-LPFR

Flight info

Callsign DLH37E
Flight time N/A
Altitude 33000
Route SOBRA2L SOBRA Y180 DIK UN857 TOLVU DCT RAPOR DCT GIMER DCT ESTOC DCT PON DCT DITAL DCT GODIX DCT DIDAK DCT KURIS DCT TERPO DCT ERIGA DCT FUJTI DCT PEPET DCT BAKUP DCT BATAX/N0436F350 DCT TOFEF DCT ALAGU DCT USALU
Aircraft A320/M-SDE3FGHIRWY/LB1

Departure

Time 2026-05-06 06:14
Airport Frankfurt Main Airport (EDDF)

Arrival

Time N/A
Airport Faro - Gago Coutinho International Airport (LPFR)
Time Latitude Longitude Altitude Speed Heading
2026-05-06 05:29 50.04928 8.59256 365 ft 0 kts 340°
2026-05-06 05:59 50.04926 8.59257 365 ft 2 kts 340°
2026-05-06 05:59 50.04909 8.59267 368 ft 3 kts 355°
2026-05-06 05:59 50.04889 8.59259 366 ft 3 kts 28°
2026-05-06 06:00 50.04872 8.59246 370 ft 3 kts 19°
2026-05-06 06:00 50.04850 8.59242 368 ft 3 kts 341°
2026-05-06 06:00 50.04837 8.59249 368 ft 0 kts 339°
2026-05-06 06:02 50.04838 8.59249 368 ft 1 kts 339°
2026-05-06 06:02 50.04842 8.59235 368 ft 1 kts 282°
2026-05-06 06:03 50.04837 8.59221 372 ft 3 kts 244°
2026-05-06 06:03 50.04827 8.59186 368 ft 8 kts 246°
2026-05-06 06:03 50.04792 8.59039 370 ft 12 kts 250°
2026-05-06 06:03 50.04760 8.58909 372 ft 13 kts 249°
2026-05-06 06:04 50.04726 8.58769 370 ft 14 kts 247°
2026-05-06 06:04 50.04687 8.58623 369 ft 15 kts 249°
2026-05-06 06:04 50.04649 8.58465 370 ft 16 kts 249°
2026-05-06 06:04 50.04623 8.58354 371 ft 16 kts 250°
2026-05-06 06:05 50.04581 8.58177 365 ft 20 kts 250°
2026-05-06 06:05 50.04531 8.57967 365 ft 20 kts 249°
2026-05-06 06:05 50.04482 8.57763 366 ft 20 kts 250°
2026-05-06 06:05 50.04432 8.57555 362 ft 22 kts 249°
2026-05-06 06:06 50.04378 8.57329 364 ft 22 kts 250°
2026-05-06 06:06 50.04328 8.57121 361 ft 14 kts 250°
2026-05-06 06:06 50.04296 8.56982 364 ft 15 kts 250°
2026-05-06 06:06 50.04282 8.56925 362 ft 0 kts 250°
2026-05-06 06:07 50.04281 8.56919 361 ft 2 kts 250°
2026-05-06 06:07 50.04273 8.56888 359 ft 5 kts 249°
2026-05-06 06:07 50.04254 8.56810 366 ft 11 kts 249°
2026-05-06 06:07 50.04219 8.56663 358 ft 18 kts 250°
2026-05-06 06:08 50.04170 8.56459 360 ft 22 kts 249°
2026-05-06 06:08 50.04112 8.56214 358 ft 26 kts 249°
2026-05-06 06:08 50.04046 8.55943 356 ft 27 kts 250°
2026-05-06 06:08 50.03979 8.55666 355 ft 27 kts 250°
2026-05-06 06:09 50.03915 8.55392 353 ft 27 kts 249°
2026-05-06 06:09 50.03850 8.55120 356 ft 27 kts 249°
2026-05-06 06:09 50.03784 8.54846 349 ft 27 kts 250°
2026-05-06 06:09 50.03719 8.54570 351 ft 27 kts 249°
2026-05-06 06:10 50.03652 8.54294 344 ft 28 kts 249°
2026-05-06 06:10 50.03586 8.54014 340 ft 28 kts 250°
2026-05-06 06:10 50.03519 8.53735 336 ft 28 kts 249°
2026-05-06 06:10 50.03452 8.53456 338 ft 27 kts 250°
2026-05-06 06:11 50.03386 8.53179 335 ft 28 kts 250°
2026-05-06 06:11 50.03321 8.52906 333 ft 23 kts 250°
2026-05-06 06:11 50.03272 8.52703 332 ft 20 kts 249°
2026-05-06 06:11 50.03241 8.52598 334 ft 8 kts 217°
2026-05-06 06:12 50.03206 8.52595 335 ft 0 kts 179°
2026-05-06 06:13 50.03112 8.52596 335 ft 43 kts 179°
2026-05-06 06:13 50.02590 8.52600 335 ft 104 kts 180°
2026-05-06 06:13 50.01695 8.52610 333 ft 151 kts 180°
2026-05-06 06:13 50.00593 8.52599 802 ft 157 kts 181°
2026-05-06 06:14 49.99495 8.52637 1473 ft 158 kts 182°
2026-05-06 06:14 49.98355 8.52712 1894 ft 173 kts 182°
2026-05-06 06:14 49.97078 8.52794 2130 ft 195 kts 182°
2026-05-06 06:14 49.95658 8.52887 2428 ft 212 kts 182°
2026-05-06 06:15 49.94140 8.52993 2984 ft 221 kts 182°
2026-05-06 06:15 49.92588 8.53107 3685 ft 225 kts 181°
2026-05-06 06:15 49.91019 8.53223 4404 ft 228 kts 181°
2026-05-06 06:15 49.89420 8.53339 5078 ft 232 kts 181°
2026-05-06 06:16 49.87806 8.53427 5778 ft 232 kts 187°
2026-05-06 06:16 49.86240 8.52881 6380 ft 234 kts 202°
2026-05-06 06:16 49.84684 8.52010 6982 ft 240 kts 203°
2026-05-06 06:16 49.83093 8.51105 7477 ft 253 kts 203°
2026-05-06 06:17 49.81395 8.50137 7995 ft 265 kts 202°
2026-05-06 06:17 49.79651 8.49147 8706 ft 269 kts 202°
2026-05-06 06:17 49.77971 8.47941 9420 ft 271 kts 217°
2026-05-06 06:17 49.76673 8.45837 10103 ft 274 kts 239°
2026-05-06 06:18 49.75992 8.43012 10408 ft 294 kts 261°
2026-05-06 06:18 49.76170 8.39752 10638 ft 318 kts 282°
2026-05-06 06:18 49.76731 8.36370 11097 ft 328 kts 282°
2026-05-06 06:18 49.77301 8.32926 11719 ft 333 kts 281°
2026-05-06 06:19 49.77873 8.29433 12370 ft 337 kts 281°
2026-05-06 06:19 49.78446 8.25899 13018 ft 340 kts 281°
2026-05-06 06:19 49.79021 8.22326 13639 ft 344 kts 281°
2026-05-06 06:19 49.79599 8.18713 14213 ft 347 kts 281°
2026-05-06 06:20 49.80178 8.15073 14801 ft 350 kts 281°
2026-05-06 06:20 49.80762 8.11396 15376 ft 353 kts 281°
2026-05-06 06:20 49.81348 8.07685 15944 ft 356 kts 281°
2026-05-06 06:20 49.81940 8.03947 16500 ft 359 kts 281°
2026-05-06 06:21 49.82539 8.00169 17050 ft 363 kts 281°
2026-05-06 06:21 49.83133 7.96413 17584 ft 366 kts 281°
2026-05-06 06:21 49.83740 7.92563 18113 ft 369 kts 281°
2026-05-06 06:21 49.84347 7.88691 18580 ft 371 kts 281°
2026-05-06 06:22 49.84955 7.84789 19075 ft 373 kts 281°
2026-05-06 06:22 49.85565 7.80873 19564 ft 375 kts 281°
2026-05-06 06:22 49.86178 7.76938 20050 ft 377 kts 281°
2026-05-06 06:22 49.86646 7.73952 20408 ft 378 kts 281°
2026-05-06 06:23 49.86777 7.73121 20513 ft 378 kts 281°
2026-05-06 06:23 49.87404 7.69145 21004 ft 380 kts 280°
2026-05-06 06:23 49.88028 7.65158 21473 ft 381 kts 280°
2026-05-06 06:23 49.88651 7.61146 21936 ft 383 kts 280°
2026-05-06 06:24 49.89273 7.57116 22396 ft 385 kts 280°
2026-05-06 06:24 49.89893 7.53064 22841 ft 387 kts 280°
2026-05-06 06:24 49.90516 7.49000 23272 ft 388 kts 280°
2026-05-06 06:24 49.91144 7.44910 23635 ft 390 kts 280°
2026-05-06 06:25 49.91774 7.40808 23998 ft 392 kts 279°
2026-05-06 06:25 49.92408 7.36671 24371 ft 394 kts 279°
2026-05-06 06:25 49.93658 7.28412 25059 ft 398 kts 279°
2026-05-06 06:26 49.94290 7.24210 25332 ft 401 kts 279°
2026-05-06 06:26 49.94927 7.19969 25621 ft 404 kts 279°
2026-05-06 06:26 49.95565 7.15695 25940 ft 407 kts 279°
2026-05-06 06:26 49.96204 7.11410 26255 ft 409 kts 279°
2026-05-06 06:27 49.96848 7.07096 26571 ft 411 kts 279°
2026-05-06 06:27 49.97496 7.02768 26865 ft 413 kts 279°
2026-05-06 06:27 49.98146 6.98418 27167 ft 414 kts 279°
2026-05-06 06:27 49.98797 6.94040 27447 ft 417 kts 279°
2026-05-06 06:28 49.99216 6.89568 27593 ft 420 kts 271°
2026-05-06 06:28 49.99184 6.85010 27745 ft 424 kts 264°
2026-05-06 06:28 49.99039 6.80444 28123 ft 424 kts 265°
2026-05-06 06:28 49.98899 6.75858 28385 ft 427 kts 265°
2026-05-06 06:29 49.98761 6.71238 28657 ft 429 kts 265°
2026-05-06 06:29 49.98620 6.66602 28935 ft 431 kts 265°
2026-05-06 06:29 49.98477 6.61943 29197 ft 433 kts 265°
2026-05-06 06:29 49.98131 6.57297 29444 ft 433 kts 257°
2026-05-06 06:30 49.97328 6.52797 29676 ft 433 kts 248°
2026-05-06 06:30 49.96154 6.48484 29897 ft 434 kts 245°
2026-05-06 06:30 49.94957 6.44244 30108 ft 436 kts 245°
2026-05-06 06:30 49.93740 6.39920 30359 ft 436 kts 245°
2026-05-06 06:31 49.92532 6.35615 30673 ft 436 kts 245°
2026-05-06 06:31 49.91314 6.31283 30811 ft 440 kts 245°
2026-05-06 06:31 49.90079 6.26910 30936 ft 443 kts 245°
2026-05-06 06:31 49.88807 6.22540 31117 ft 446 kts 244°
2026-05-06 06:32 49.87537 6.18141 31391 ft 446 kts 245°
2026-05-06 06:32 49.86241 6.13783 31718 ft 444 kts 240°
2026-05-06 06:32 49.84632 6.09731 32059 ft 441 kts 234°
2026-05-06 06:32 49.82874 6.05847 32400 ft 439 kts 234°
2026-05-06 06:33 49.81139 6.02050 32748 ft 437 kts 233°
2026-05-06 06:33 49.79361 5.98184 33208 ft 432 kts 233°
2026-05-06 06:33 49.77615 5.94410 33631 ft 429 kts 233°
2026-05-06 06:33 49.75908 5.90727 33927 ft 427 kts 233°
2026-05-06 06:34 49.74316 5.86838 34162 ft 428 kts 242°
2026-05-06 06:34 49.73138 5.82603 34324 ft 430 kts 249°
2026-05-06 06:34 49.72137 5.78236 34484 ft 431 kts 249°
2026-05-06 06:34 49.71131 5.73867 34670 ft 431 kts 249°
2026-05-06 06:35 49.70122 5.69506 34756 ft 430 kts 249°
2026-05-06 06:35 49.68105 5.60838 34757 ft 427 kts 249°
2026-05-06 06:36 49.66085 5.52205 34773 ft 427 kts 249°
2026-05-06 06:36 49.64052 5.43597 34763 ft 427 kts 248°
2026-05-06 06:37 49.62033 5.35043 34773 ft 428 kts 249°
2026-05-06 06:37 49.60140 5.26333 34777 ft 428 kts 251°
2026-05-06 06:38 49.58366 5.17564 34787 ft 429 kts 252°
2026-05-06 06:38 49.56818 5.08688 34778 ft 429 kts 254°
2026-05-06 06:39 49.55320 4.99805 34788 ft 429 kts 253°
2026-05-06 06:39 49.53763 4.90928 34799 ft 429 kts 253°
2026-05-06 06:40 49.52166 4.82070 34785 ft 430 kts 253°
2026-05-06 06:40 49.50565 4.73255 34783 ft 431 kts 253°
2026-05-06 06:41 49.48952 4.64360 34796 ft 431 kts 253°
2026-05-06 06:41 49.47337 4.55524 34796 ft 431 kts 253°
2026-05-06 06:42 49.45700 4.46589 34824 ft 437 kts 253°
2026-05-06 06:42 49.44030 4.37494 34810 ft 446 kts 253°
2026-05-06 06:43 49.42339 4.28360 34813 ft 447 kts 252°
2026-05-06 06:43 49.40629 4.19145 34811 ft 447 kts 252°
2026-05-06 06:44 49.38930 4.10016 34818 ft 447 kts 252°
2026-05-06 06:44 49.37203 4.00835 34819 ft 448 kts 252°
2026-05-06 06:45 49.35577 3.91597 34843 ft 448 kts 255°
2026-05-06 06:45 49.34286 3.82262 34837 ft 449 kts 257°
2026-05-06 06:46 49.33044 3.72845 34852 ft 449 kts 256°
2026-05-06 06:46 49.31722 3.63477 34847 ft 449 kts 256°
2026-05-06 06:47 49.30352 3.54203 34864 ft 448 kts 256°
2026-05-06 06:47 49.28972 3.44871 34850 ft 449 kts 256°
2026-05-06 06:48 49.27591 3.35532 34848 ft 449 kts 255°
2026-05-06 06:48 49.26220 3.26270 34844 ft 449 kts 256°
2026-05-06 06:49 49.24836 3.16951 34854 ft 449 kts 256°
2026-05-06 06:49 49.23441 3.07624 34855 ft 449 kts 256°
2026-05-06 06:50 49.22039 2.98314 34854 ft 449 kts 256°
2026-05-06 06:50 49.20624 2.89001 34855 ft 450 kts 256°
2026-05-06 06:51 49.19203 2.79671 34862 ft 450 kts 256°
2026-05-06 06:51 49.17783 2.70415 34866 ft 450 kts 255°
2026-05-06 06:52 49.16340 2.61101 34868 ft 451 kts 256°
2026-05-06 06:52 49.14883 2.51767 34861 ft 451 kts 256°
2026-05-06 06:53 49.13431 2.42439 34860 ft 452 kts 256°
2026-05-06 06:53 49.12363 2.32984 34882 ft 453 kts 261°
2026-05-06 06:54 49.11487 2.23461 34890 ft 453 kts 261°
2026-05-06 06:54 49.10743 2.15543 34896 ft 453 kts 262°
2026-05-06 06:55 49.09795 2.06028 34899 ft 453 kts 257°
2026-05-06 06:55 49.07226 1.95590 34899 ft 453 kts 245°
2026-05-06 06:56 49.05028 1.88280 34900 ft 453 kts 245°
2026-05-06 06:56 49.02392 1.79572 34894 ft 452 kts 245°
2026-05-06 06:57 48.99769 1.70929 34892 ft 453 kts 245°
2026-05-06 06:57 48.97120 1.62203 34884 ft 454 kts 245°
2026-05-06 06:58 48.94454 1.53459 34891 ft 456 kts 245°
2026-05-06 06:58 48.91771 1.44708 34894 ft 456 kts 245°
2026-05-06 06:59 48.89090 1.35954 34901 ft 457 kts 245°
2026-05-06 06:59 48.86392 1.27208 34898 ft 458 kts 245°
2026-05-06 07:00 48.83684 1.18501 34890 ft 459 kts 245°
2026-05-06 07:00 48.80961 1.09713 34888 ft 461 kts 245°
2026-05-06 07:01 48.78230 1.00919 34889 ft 461 kts 245°
2026-05-06 07:01 48.75481 0.92122 34887 ft 461 kts 245°
2026-05-06 07:02 48.72351 0.83630 34888 ft 462 kts 239°
2026-05-06 07:02 48.68990 0.75346 34893 ft 462 kts 239°
2026-05-06 07:03 48.65624 0.67079 34903 ft 461 kts 239°
2026-05-06 07:03 48.62265 0.58814 34908 ft 461 kts 239°
2026-05-06 07:04 48.58893 0.50555 34904 ft 462 kts 239°
2026-05-06 07:04 48.55532 0.42356 34890 ft 462 kts 239°
2026-05-06 07:05 48.52143 0.34117 34903 ft 462 kts 239°
2026-05-06 07:05 48.48750 0.25872 34904 ft 462 kts 239°
2026-05-06 07:06 48.45354 0.17640 34900 ft 462 kts 239°
2026-05-06 07:06 48.41949 0.09430 34916 ft 462 kts 239°
2026-05-06 07:07 48.38537 0.01237 34912 ft 462 kts 238°
2026-05-06 07:07 48.35086 -0.06866 34920 ft 462 kts 236°
2026-05-06 07:08 48.31286 -0.14676 34924 ft 463 kts 233°
2026-05-06 07:08 48.27348 -0.22312 34921 ft 462 kts 233°
2026-05-06 07:09 48.23436 -0.29966 34925 ft 462 kts 233°
2026-05-06 07:09 48.19526 -0.37617 34920 ft 462 kts 233°
2026-05-06 07:10 48.15641 -0.45210 34917 ft 462 kts 233°
2026-05-06 07:10 48.11705 -0.52890 34915 ft 462 kts 233°
2026-05-06 07:11 48.07812 -0.60466 34910 ft 462 kts 233°
2026-05-06 07:11 48.03884 -0.68068 34912 ft 462 kts 233°
2026-05-06 07:12 47.99952 -0.75663 34914 ft 462 kts 232°
2026-05-06 07:12 47.96010 -0.83262 34911 ft 462 kts 232°
2026-05-06 07:13 47.92065 -0.90844 34914 ft 463 kts 233°
2026-05-06 07:13 47.88114 -0.98423 34925 ft 462 kts 233°
2026-05-06 07:14 47.84191 -1.05927 34933 ft 462 kts 233°
2026-05-06 07:14 47.80236 -1.13473 34933 ft 462 kts 233°
2026-05-06 07:15 47.76270 -1.21002 34932 ft 463 kts 232°
2026-05-06 07:15 47.72285 -1.28531 34924 ft 463 kts 233°
2026-05-06 07:16 47.68308 -1.36044 34924 ft 463 kts 233°
2026-05-06 07:16 47.64351 -1.43522 34928 ft 463 kts 233°
2026-05-06 07:17 47.60358 -1.51027 34932 ft 463 kts 232°
2026-05-06 07:17 47.56195 -1.58312 34934 ft 464 kts 229°
2026-05-06 07:18 47.51813 -1.65359 34930 ft 464 kts 228°
2026-05-06 07:18 47.47432 -1.72367 34926 ft 464 kts 229°
2026-05-06 07:19 47.43094 -1.79451 34927 ft 464 kts 229°
2026-05-06 07:19 47.38774 -1.86536 34936 ft 464 kts 229°
2026-05-06 07:20 47.34208 -1.93260 34938 ft 465 kts 218°
2026-05-06 07:20 47.28782 -1.98357 34935 ft 466 kts 212°
2026-05-06 07:21 47.23235 -2.03308 34934 ft 466 kts 212°
2026-05-06 07:21 47.17681 -2.08271 34929 ft 467 kts 212°
2026-05-06 07:22 47.12125 -2.13221 34943 ft 467 kts 212°
2026-05-06 07:22 47.06566 -2.18162 34934 ft 468 kts 212°
2026-05-06 07:23 47.00988 -2.23104 34930 ft 468 kts 211°
2026-05-06 07:23 46.95448 -2.27991 34934 ft 468 kts 211°
2026-05-06 07:24 46.89860 -2.32904 34948 ft 468 kts 211°
2026-05-06 07:24 46.84270 -2.37815 34954 ft 468 kts 211°
2026-05-06 07:25 46.78683 -2.42722 34951 ft 469 kts 211°
2026-05-06 07:25 46.73089 -2.47621 34949 ft 468 kts 212°
2026-05-06 07:26 46.67498 -2.52502 34947 ft 468 kts 212°
2026-05-06 07:26 46.61945 -2.57346 34953 ft 468 kts 212°
2026-05-06 07:27 46.56352 -2.62216 34959 ft 468 kts 211°
2026-05-06 07:27 46.50753 -2.67065 34959 ft 468 kts 211°
2026-05-06 07:28 46.45155 -2.71908 34952 ft 468 kts 211°
2026-05-06 07:28 46.36776 -2.79135 34950 ft 469 kts 211°
2026-05-06 07:29 46.31170 -2.83961 34935 ft 469 kts 211°
2026-05-06 07:29 46.25563 -2.88772 34937 ft 469 kts 211°
2026-05-06 07:30 46.19944 -2.93582 34950 ft 469 kts 212°
2026-05-06 07:30 46.14330 -2.98383 34950 ft 469 kts 212°
2026-05-06 07:31 46.08740 -3.03159 34955 ft 470 kts 211°
2026-05-06 07:31 46.03110 -3.07939 34955 ft 470 kts 211°
2026-05-06 07:32 45.97470 -3.12721 34955 ft 470 kts 211°
2026-05-06 07:32 45.91826 -3.17482 34959 ft 470 kts 211°
2026-05-06 07:33 45.86182 -3.22235 34965 ft 470 kts 211°
2026-05-06 07:33 45.80550 -3.26988 34969 ft 470 kts 211°
2026-05-06 07:34 45.74908 -3.31729 34974 ft 470 kts 211°
2026-05-06 07:34 45.69268 -3.36461 34976 ft 470 kts 211°
2026-05-06 07:35 45.63623 -3.41175 34977 ft 470 kts 211°
2026-05-06 07:35 45.58009 -3.45854 34980 ft 470 kts 211°
2026-05-06 07:36 45.52350 -3.50555 34972 ft 470 kts 211°
2026-05-06 07:36 45.46705 -3.55233 34983 ft 469 kts 211°
2026-05-06 07:37 45.41057 -3.59913 34987 ft 469 kts 211°
2026-05-06 07:37 45.35429 -3.64577 34990 ft 468 kts 211°
2026-05-06 07:38 45.29787 -3.69227 34993 ft 468 kts 211°
2026-05-06 07:38 45.24189 -3.73826 35002 ft 468 kts 211°
2026-05-06 07:39 45.18553 -3.78451 35003 ft 467 kts 211°
2026-05-06 07:39 45.12919 -3.83051 34999 ft 467 kts 211°
2026-05-06 07:40 45.07298 -3.87627 34995 ft 466 kts 211°
2026-05-06 07:40 45.01747 -3.92336 35004 ft 465 kts 213°
2026-05-06 07:41 44.96244 -3.97132 35003 ft 465 kts 213°
2026-05-06 07:41 44.90729 -4.01889 35005 ft 464 kts 212°
2026-05-06 07:42 44.85243 -4.06557 35013 ft 463 kts 212°
2026-05-06 07:42 44.79725 -4.11230 35015 ft 462 kts 212°
2026-05-06 07:43 44.74203 -4.15893 35013 ft 462 kts 212°
2026-05-06 07:43 44.68696 -4.20531 35016 ft 461 kts 212°
2026-05-06 07:44 44.63193 -4.25183 35013 ft 461 kts 212°
2026-05-06 07:44 44.57700 -4.29820 35006 ft 461 kts 212°
2026-05-06 07:45 44.52204 -4.34447 35002 ft 460 kts 212°
2026-05-06 07:45 44.46715 -4.39045 35014 ft 459 kts 212°
2026-05-06 07:46 44.41229 -4.43625 35018 ft 458 kts 212°
2026-05-06 07:46 44.35810 -4.48187 35016 ft 457 kts 213°
2026-05-06 07:47 44.30384 -4.52804 35014 ft 457 kts 213°
2026-05-06 07:47 44.25868 -4.56634 35017 ft 456 kts 213°
2026-05-06 07:48 44.20434 -4.61210 35007 ft 456 kts 213°
2026-05-06 07:48 44.14998 -4.65777 35011 ft 456 kts 213°
2026-05-06 07:49 44.09565 -4.70336 35020 ft 456 kts 213°
2026-05-06 07:49 44.04128 -4.74893 35024 ft 456 kts 213°
2026-05-06 07:50 43.98691 -4.79447 35029 ft 456 kts 213°
2026-05-06 07:50 43.93279 -4.83963 35031 ft 457 kts 213°
2026-05-06 07:51 43.87829 -4.88495 35026 ft 457 kts 213°
2026-05-06 07:51 43.82373 -4.93023 35024 ft 457 kts 213°
2026-05-06 07:52 43.76913 -4.97552 35012 ft 458 kts 213°
2026-05-06 07:52 43.71447 -5.02077 35006 ft 458 kts 213°
2026-05-06 07:53 43.65986 -5.06579 35021 ft 457 kts 214°
2026-05-06 07:53 43.60528 -5.11080 35024 ft 456 kts 214°
2026-05-06 07:54 43.55075 -5.15563 35033 ft 456 kts 213°
2026-05-06 07:54 43.49620 -5.20031 35036 ft 456 kts 214°
2026-05-06 07:55 43.44164 -5.24493 35045 ft 456 kts 214°
2026-05-06 07:55 43.38746 -5.28922 35054 ft 456 kts 214°
2026-05-06 07:56 43.33292 -5.33365 35043 ft 456 kts 213°
2026-05-06 07:56 43.27839 -5.37795 35021 ft 456 kts 214°
2026-05-06 07:57 43.22371 -5.42228 35026 ft 456 kts 214°
2026-05-06 07:57 43.16912 -5.46652 35023 ft 456 kts 214°
2026-05-06 07:58 43.11443 -5.51068 35028 ft 456 kts 214°
2026-05-06 07:58 43.05971 -5.55475 35033 ft 456 kts 214°
2026-05-06 07:59 43.00538 -5.59846 35038 ft 456 kts 214°
2026-05-06 07:59 42.95075 -5.64233 35044 ft 455 kts 214°
2026-05-06 08:00 42.89612 -5.68616 35044 ft 455 kts 214°
2026-05-06 08:00 42.84154 -5.72983 35029 ft 454 kts 214°
2026-05-06 08:01 42.78745 -5.77294 35043 ft 453 kts 214°
2026-05-06 08:01 42.73311 -5.81623 35047 ft 452 kts 214°
2026-05-06 08:02 42.67880 -5.85933 35045 ft 451 kts 214°
2026-05-06 08:02 42.62458 -5.90235 35043 ft 451 kts 214°
2026-05-06 08:03 42.57035 -5.94534 35045 ft 451 kts 214°
2026-05-06 08:03 42.51645 -5.98789 35046 ft 451 kts 214°
2026-05-06 08:04 42.46216 -6.03061 35048 ft 451 kts 214°
2026-05-06 08:04 42.40791 -6.07320 35042 ft 450 kts 214°
2026-05-06 08:05 42.35373 -6.11575 35043 ft 450 kts 213°
2026-05-06 08:05 42.29952 -6.15828 35044 ft 450 kts 214°
2026-05-06 08:06 42.24534 -6.20074 35043 ft 450 kts 213°
2026-05-06 08:06 42.19146 -6.24276 35041 ft 450 kts 213°
2026-05-06 08:07 42.13727 -6.28492 35070 ft 449 kts 213°
2026-05-06 08:07 42.08311 -6.32693 35049 ft 449 kts 213°
2026-05-06 08:08 42.02905 -6.36876 35058 ft 448 kts 213°
2026-05-06 08:08 41.97499 -6.41055 35058 ft 448 kts 213°
2026-05-06 08:09 41.92099 -6.45230 35060 ft 447 kts 213°
2026-05-06 08:09 41.86714 -6.49397 35047 ft 447 kts 213°
2026-05-06 08:10 41.81363 -6.53525 35045 ft 447 kts 213°
2026-05-06 08:10 41.75973 -6.57658 35046 ft 446 kts 213°
2026-05-06 08:11 41.70531 -6.61661 35044 ft 448 kts 207°
2026-05-06 08:11 41.64546 -6.64143 35054 ft 452 kts 198°
2026-05-06 08:12 41.58474 -6.66289 35051 ft 451 kts 198°
2026-05-06 08:12 41.52400 -6.68434 35050 ft 451 kts 198°
2026-05-06 08:13 41.46339 -6.70567 35062 ft 451 kts 198°
2026-05-06 08:13 41.40279 -6.72702 35056 ft 450 kts 198°
2026-05-06 08:14 41.34256 -6.74808 35044 ft 450 kts 198°
2026-05-06 08:14 41.28211 -6.76926 35055 ft 449 kts 198°
2026-05-06 08:15 41.22167 -6.79047 35055 ft 449 kts 198°
2026-05-06 08:15 41.16131 -6.81156 35057 ft 448 kts 198°
2026-05-06 08:16 41.10096 -6.83249 35053 ft 448 kts 198°
2026-05-06 08:16 41.04071 -6.85345 35047 ft 447 kts 198°
2026-05-06 08:17 40.98041 -6.87431 35048 ft 447 kts 198°
2026-05-06 08:17 40.92019 -6.89515 35034 ft 447 kts 198°
2026-05-06 08:18 40.86003 -6.91607 35042 ft 447 kts 198°
2026-05-06 08:18 40.80023 -6.93676 35046 ft 447 kts 198°
2026-05-06 08:19 40.73999 -6.95746 35051 ft 447 kts 198°
2026-05-06 08:19 40.67987 -6.97810 35039 ft 446 kts 198°
2026-05-06 08:20 40.61978 -6.99868 35043 ft 446 kts 198°
2026-05-06 08:20 40.55971 -7.01919 35050 ft 446 kts 198°
2026-05-06 08:21 40.49969 -7.03978 35042 ft 446 kts 198°
2026-05-06 08:21 40.44005 -7.06015 35042 ft 445 kts 198°
2026-05-06 08:22 40.38004 -7.08054 35043 ft 445 kts 198°
2026-05-06 08:22 40.32004 -7.10096 35035 ft 445 kts 198°
2026-05-06 08:23 40.26003 -7.12131 35039 ft 445 kts 198°
2026-05-06 08:23 40.20006 -7.14146 35027 ft 445 kts 198°
2026-05-06 08:24 40.14020 -7.16172 35031 ft 444 kts 198°
2026-05-06 08:24 40.08045 -7.18199 35035 ft 443 kts 198°
2026-05-06 08:25 40.02065 -7.20212 35025 ft 443 kts 198°
2026-05-06 08:25 39.96095 -7.22209 35036 ft 442 kts 198°
2026-05-06 08:26 39.90171 -7.24202 35035 ft 442 kts 198°
2026-05-06 08:26 39.84204 -7.26209 35034 ft 442 kts 198°
2026-05-06 08:27 39.78237 -7.28202 35016 ft 442 kts 198°
2026-05-06 08:27 39.72325 -7.30161 35036 ft 441 kts 198°
2026-05-06 08:28 39.66388 -7.32142 35040 ft 440 kts 198°
2026-05-06 08:28 39.60456 -7.34132 35040 ft 440 kts 198°
2026-05-06 08:29 39.54530 -7.36098 35031 ft 439 kts 198°
2026-05-06 08:29 39.48479 -7.37421 35034 ft 442 kts 191°
2026-05-06 08:30 39.42385 -7.38481 35031 ft 442 kts 192°
2026-05-06 08:30 39.36293 -7.39546 35030 ft 442 kts 192°
2026-05-06 08:31 39.30205 -7.40610 35015 ft 441 kts 192°
2026-05-06 08:31 39.24120 -7.41668 35022 ft 441 kts 192°
2026-05-06 08:32 39.18065 -7.42721 35024 ft 441 kts 192°
2026-05-06 08:32 39.11987 -7.43781 35022 ft 441 kts 192°
2026-05-06 08:33 39.05914 -7.44842 35023 ft 440 kts 192°
2026-05-06 08:33 38.99842 -7.45892 35028 ft 440 kts 192°
2026-05-06 08:34 38.90755 -7.47470 35030 ft 439 kts 192°
2026-05-06 08:35 38.84697 -7.48515 35020 ft 438 kts 192°
2026-05-06 08:35 38.78659 -7.49549 35033 ft 437 kts 192°
2026-05-06 08:36 38.72670 -7.50578 35038 ft 436 kts 192°
2026-05-06 08:36 38.66649 -7.51605 35035 ft 436 kts 192°
2026-05-06 08:37 38.65694 -7.51768 35039 ft 436 kts 192°